Regional Weather Roundup
Issued by NWS Grand Forks, ND

Home | Current Version | Previous Version | Graphics & Text | Print | Product List | Glossary On
Versions: 1 2 3 4 5 6 7 8 9 10 11 12 13 14 15 16 17 18 19 20 21 22 23 24 25 26 27 28 29 30 31 32 33 34 35 36 37 38 39 40 41 42 43 44 45 46 47 48 49 50
000
ASUS43 KFGF 191710
RWRFGF
PRAIRIE TO PINES  WEATHER ROUNDUP
NATIONAL WEATHER SERVICE EASTERN NORTH DAKOTA/GRAND FORKS ND
1200 PM CDT THU OCT 19 2017

 **SATELLITE DATA USED TO AUGMENT SKY COVER AT AUTOMATED STATIONS**
 *****  WEATHER ACROSS EASTERN NORTH DAKOTA  *****

CITY           SKY/WX    TMP DP  RH WIND       PRES   REMARKS
GRAND FORKS    PTSUNNY   58  33  39 S18G25    29.80F
GRAND FRKS AFB FAIR      58  32  38 S14       29.80F
DEVILS LAKE    FAIR      56  35  45 SE8       29.77F
FARGO          FAIR      62  36  37 S18G28    29.85F
WAHPETON ARPT  NOT AVBL
$$

 ***** WEATHER ACROSS CENTRAL AND WESTERN NORTH DAKOTA  *****

CITY           SKY/WX    TMP DP  RH WIND       PRES   REMARKS
BISMARCK       FAIR      61  36  39 S5        29.81S
MINOT          FAIR      62  34  35 SW14      29.71S
JAMESTOWN      FAIR      64  37  36 SW13      29.80S
MINOT AFB      FAIR      63  32  31 W17       29.69S
GARRISON         N/A     60  32  34 SW9       29.76S
WILLISTON      FAIR      57  35  43 S7        29.72F
DICKINSON      FAIR      72  32  23 SW15      29.78S
HETTINGER      FAIR      73  28  18 SW7       29.83S
$$

 *****  OTHER AIRPORT OBSERVATIONS IN OUR AREA  *****

CITY           SKY/WX    TMP DP  RH WIND       PRES   REMARKS
WALHALLA       FAIR     N/A N/A N/A SE9       29.77F
GRAFTON AIRPOR FAIR      55  32  41 S16       29.81F
VALLEY CITY AR FAIR      59  37  44 S16G26    29.82F
CANDO          FAIR      55  32  41 S8        29.77F
CAVALIER APRT  FAIR      54  30  40 S14       29.78F
GWINNER        SUNNY     64  36  34 SW20G28   29.85F
SHEYENNE NWR     N/A     66  38  35 SW13      29.95S
ROLLA          FAIR      52  28  40 SW14      29.74S
 ***** THE ABOVE OBSERVATIONS ARE NON NWS ARE NOT QUALITY
       CONTROLLED AND MAY MIS-REPORT RAIN FOR SNOW...
$$

  *****  WEATHER ACROSS NORTHERN MINNESOTA  *****

CITY           SKY/WX    TMP DP  RH WIND       PRES   REMARKS
FLAG ISLAND      N/A     48  36  61 S13       29.87S
WARROAD        FAIR      55  28  35 S7        29.87F
ROSEAU         FAIR      59  28  31 S10       29.85F
HALLOCK        FAIR      57  27  30 S21       29.80F
THF RVR FALLS  FAIR      62  31  31 S20G25    29.85F
BAUDETTE       FAIR      57  24  28 S10       29.90F
WASKISH        FAIR      61  30  31 S6        29.91F
CROOKSTON      FAIR      61  32  33 S18G25    29.83F
STEPHEN NDAWN    N/A     61  32  33 S15         N/A
GREENBUSH NDAW   N/A     61  30  31 S15         N/A
$$
  *****  WEATHER ACROSS CENTRAL AND WEST MINNESOTA  *****

CITY           SKY/WX    TMP DP  RH WIND       PRES   REMARKS
FOSSTON        FAIR      63  30  29 S24       29.86F
BEMIDJI        FAIR      61  32  33 S10G16    29.91F
PARK RAPIDS    LGT RAIN  64  34  32 S18G31    29.93F
ELBOW LAKE     FAIR      62  37  39 S16G23    29.95R
WADENA         FAIR      63  36  36 S14G21    29.94F
DETROIT LAKES  FAIR      64  34  32 S18G26    29.90F
MOORHEAD       FAIR      61  34  36 S14       29.87F
FERGUS FALLS   FAIR      63  37  39 S15G21    29.93S
MORRIS MN      FAIR      64  37  36 S20       29.93S
STAPLES        FAIR      63  28  27 S10       29.97S
$$
  *****  WEATHER ELSEWHERE ACROSS MINNESOTA  *****

CITY           SKY/WX    TMP DP  RH WIND       PRES   REMARKS
DULUTH         FAIR      60  30  32 SW8       30.01R
INTRNTL FALLS  FAIR      56  23  27 S5        29.93S
ELY            FAIR      55  18  22 W9        29.97S
CLOQUET        FAIR      59  28  31 S8        30.01F
WHEATON        FAIR      68  36  30 S17G28    29.91F
BRAINERD       FAIR      62  30  29 S13       29.99F
HIBBING        FAIR      58  28  32 VRB7      29.98F
ALEXANDRIA     FAIR      63  34  33 S22G29    29.97F
SAINT CLOUD    FAIR      62  32  32 S12       30.02F
MINNEAPOLIS    FAIR      63  35  35 S8        30.06F
$$

  *****  WEATHER ACROSS SOUTH DAKOTA  *****

CITY           SKY/WX    TMP DP  RH WIND       PRES   REMARKS
SIOUX FALLS    FAIR      66  45  46 S14       30.02F
BROOKINGS      FAIR      62  39  42 S20G28    29.97F
WATERTOWN      FAIR      63  41  44 S22G29    29.94S
HURON          FAIR      63  40  42 S16G23    29.93F
SISSETON         N/A     69  39  33 S29G41    29.87F
ABERDEEN       FAIR      64  39  39 S20G26    29.87F
MITCHELL       FAIR      66  43  43 S15       29.97F
PIERRE         FAIR      70  39  32 S12       29.84F
MOBRIDGE       FAIR      62  41  46 SW8       29.81F
RAPID CITY     FAIR      72  33  24 SE8       29.86F
$$

  *****  SOME WEATHER IN NEARBY STATES *****

CITY           SKY/WX    TMP DP  RH WIND       PRES   REMARKS
GLASGOW MT     FAIR      63  37  38 SE9       29.67F
GREAT FALLS MT FAIR      68  22  17 S14       29.67F
CHEYENNE WY    FAIR      69  21  16 S8        30.09F
SCOTTSBLUFF NE FAIR      61  32  33 E3        30.00F
OMAHA NE       FAIR      69  51  52 S9        30.08F
DES MOINES IA  PTSUNNY   68  36  30 SE10      30.12F
DAVENPORT IA   FAIR      66  33  29 SE14      30.20R
CHICAGO IL     FAIR      66  26  22 VRB3      30.19S
EAU CLAIRE WI  FAIR      61  35  37 SW6       30.10F
LA CROSSE WI   FAIR      62  36  37 S9        30.13S
$$

  *****  SOME NATIONAL WEATHER *****

CITY           SKY/WX    TMP DP  RH WIND       PRES   REMARKS
LA GUARDIA NY  FAIR      69  41  36 SW15G22   30.19F
RALEIGH NC     FAIR      70  52  52 W6        30.29F
ATLANTA GA     FAIR      69  43  38 N5        30.31F
NEW ORLEANS LA FAIR      77  68  73 NE10      30.19F
OKLAHOMA CITY  PTSUNNY   69  51  52 S12       30.15S
ALBUQUERQUE NM PTSUNNY   62  33  33 W6        30.17S
SALT LAKE CITY FAIR      62  27  26 E6        29.99F
LOS ANGELES CA PTSUNNY   72  61  68 SE6       29.93R
BOISE ID       FAIR      61  27  27 SE12      29.84S
SEATTLE WA     CLOUDY    53  51  93 S10       29.57F
$$

*** WEATHER ACROSS MANITOBA...SASKATCHEWAN AND ONTARIO ***
                ***ONTARIO***

CITY           SKY/WX    TMP DP  RH WIND       PRES   REMARKS
GERALDTON      PTSUNNY   50  30  46 W15G29    29.76R
THUNDER BAY    PTSUNNY   55  25  30 W15G25    29.90R
SIOUX LOOKOUT  CLOUDY    48  28  46 W9        29.86R
TORONTO        MOSUNNY   68  48  49 W20G26    29.99S
BIG TROUT LK   CLOUDY    37  36  93 NW18G30   29.65R
PICKLE LAKE    PTSUNNY   43  27  52 W17G28    29.76R
DRYDEN         MOSUNNY   50  27  40 W12G17    29.87R
KENORA         PTSUNNY   48  27  43 S8        29.87S
$$
                *** MANITOBA***

CITY           SKY/WX    TMP DP  RH WIND       PRES   REMARKS
BRANDON        CLOUDY    50  30  46 SE8       29.69F
DAUPHIN        SUNNY     52  25  35 E9        29.62F
ISLAND LAKE    PTSUNNY   36  32  87 NW8       29.78R
PILOT MOUND      N/A     55  30  38 S13         N/A
THE PAS        PTSUNNY   36  28  75 SE12G21   29.64F
THOMPSON       CLOUDY    36  30  80 NE7       29.75F
WINNIPEG       PTSUNNY   55  23  28 SE13      29.77F
LYNN LAKE      FLURRIES  30  30 100 SE9G18    29.67F WCI  22
CHURCHILL      FLURRIES  34  32  93 NE14      29.81R WCI  24
GILLAM         CLOUDY    36  32  87 N10       29.76R
$$
                ***SASKATCHEWAN***

CITY           SKY/WX    TMP DP  RH WIND       PRES   REMARKS
ESTEVAN        PTSUNNY   59  32  36 SW16G22   29.67R
KINDERSLEY     PTSUNNY   59  36  41 W23G33    29.45R
LLOYDMINSTER   PTSUNNY   52  34  50 N5        29.39R
PRINCE ALBERT  PTSUNNY   43  27  52 SE12      29.47S
REGINA         PTSUNNY   64  34  32 S12       29.57F
YORKTON        SUNNY     54  30  40 S9        29.55F
N. BATTLEFORD  SUNNY     52  34  50 SW5       29.42F
LA RONGE       PTSUNNY   36  28  75 E10G17    29.50F
SASKATOON      PTSUNNY   59  37  44 SW9       29.44R
SWIFT CURRENT  SUNNY     63  28  27 SW24G31   29.52S
$$
NOTE: THESE ARE AUTOMATED STATIONS WITH LIMITED QUALITY CONTROL
      "FAIR" INDICATES FEW OR NO CLOUDS BELOW 12,000 FEET WITH NO
      SIGNIFICANT WEATHER AND/OR OBSTRUCTIONS TO VISIBILITY.
      SKY/WX - SKY CONDITION AND SIGNIFICANT WEATHER.
      TMP - AIR TEMPERATURE.    DP   - DEWPOINT TEMPERATURE.
      RH  - RELATIVE HUMIDITY.  PRES - PRESSURE.
      HX  - HEAT INDEX.         WCI  - WIND CHILL INDEX.
$




USA.gov is the U.S. government's official web portal to all federal, state and local government web resources and services.